Regional Weather Roundup
Issued by NWS

Home | Current Version | Previous Version | Graphics & Text | Print | Product List | Glossary On
Versions: 1 2 3 4 5 6 7 8 9 10 11 12 13 14 15 16 17 18 19 20 21 22 23 24 25 26 27 28 29 30 31 32 33 34 35 36 37 38 39 40 41 42 43 44 45 46 47 48 49 50
759
ASUS43 KLOT 081208
RWRIL

ILLINOIS REGIONAL WEATHER ROUNDUP
NATIONAL WEATHER SERVICE CHICAGO/ROMEOVILLE IL
600 AM CST MON FEB 08 2016

NOTE: "FAIR" INDICATES FEW OR NO CLOUDS BELOW 12,000 FEET WITH NO
SIGNIFICANT WEATHER AND/OR OBSTRUCTIONS TO VISIBILITY.

* THESE STATIONS ARE NOT UNDER NWS QUALITY CONTROL. THEY ALSO MAY NOT
  REPORT WEATHER SUCH AS PRECIPITATION OR FOG.

ILZ001-002-007-009-015-016-024-081300-
NORTHWEST ILLINOIS

CITY           SKY/WX    TMP DP  RH WIND       PRES   REMARKS
MOLINE         LGT SNOW  22  17  81 W15       29.74R WCI   9
6HR MIN TEMP:  22; 6HR MAX TEMP:  34; 6HR PCP:  0.04;

STERLING*      CLOUDY    27  16  63 NW15G21   29.67R WCI  15
SAVANNA*       LGT SNOW  22  18  85 NW14G20   29.70R WCI   9
$$

ILZ003-004-008-010-011-017-018-081300-
NORTH CENTRAL ILLINOIS

CITY           SKY/WX    TMP DP  RH WIND       PRES   REMARKS
ROCKFORD       FLURRIES  28  21  75 W13       29.66R WCI  17
6HR MIN TEMP:  28; 6HR MAX TEMP:  34; 6HR PCP: TRACE;

FREEPORT*      CLOUDY    25  18  76 W16G22    29.67R WCI  12
ROCHELLE*      CLOUDY    28  22  79 W18       29.66R WCI  15
DE KALB*       CLOUDY    29  21  73 W18G24    29.63S WCI  16
$$

ILZ005-006-012>014-019>023-081300-
NORTHEAST ILLINOIS

CITY           SKY/WX    TMP DP  RH WIND       PRES   REMARKS
CHICAGO-OHARE  FLURRIES  32  29  88 SW7       29.61R WCI  26
6HR MIN TEMP:  29; 6HR MAX TEMP:  32; 6HR PCP: TRACE;

CHICAGO-MIDWAY FLURRIES  32  27  81 SW8       29.62S WCI  25
6HR MIN TEMP:  30; 6HR MAX TEMP:  34; 6HR PCP: TRACE;

AURORA         CLOUDY    31  26  82 W20       29.63S WCI  19
6HR MIN TEMP:  30; 6HR MAX TEMP:  33; 6HR PCP: TRACE;

LANSING*       CLOUDY    31  28  89 SW5       29.64S WCI  26
JOLIET*        CLOUDY    33  31  90 W8        29.64S WCI  26
WAUKEGAN       CLOUDY    33  30  88 VRB6      29.59S WCI  28
6HR MIN TEMP:  26; 6HR MAX TEMP:  33;

DUPAGE AIRPORT FLURRIES  31  26  82 W14       29.62R WCI  21
6HR MIN TEMP:  26; 6HR MAX TEMP:  31; 6HR PCP: TRACE;

KANKAKEE*      DRIZZLE   32  30  91 W9        29.65S WCI  25
WHEELING       FLURRIES  32  29  88 SW6       29.62S WCI  26
6HR MIN TEMP:  25; 6HR MAX TEMP:  33; 6HR PCP: TRACE;

MORRIS*        MIX PCPN  32  28  87 W14       29.63R WCI  22
ROMEOVILLE*    LGT RAIN  32  30  92 W9        29.63S WCI  24
NORTHERLY ISL    N/A     32  27  82 W7          N/A  WCI  26
$$

LMZ740>746-081300-
SOUTHERN LAKE MICHIGAN

STATION/POSITION SKY/WX   TEMP    WIND        PRES    VSBY  WAVE
                          AIR SEA DIR/SP/G                  HT/PER
                          (F)     (DEG/KT/KT) (MB)    (MI)  (FT/S)
HARRISON CRIB              34     250/ 13/ 14   N/A
BURNHAM HARBOR             32     240/  4/  8   N/A
CALUMET HARBOR             30     200/  5/  6 1002.9F
BURNS HARBOR               31     200/  8/  9 1004.4S
MICHIGAN CITY              31     180/  9/ 10   N/A
$$

ILZ025>027-034>036-040-047-049-050-058-095>099-081300-
WEST-CENTRAL ILLINOIS

CITY           SKY/WX    TMP DP  RH WIND       PRES   REMARKS
QUINCY         SNOW      27  25  92 NW20      29.79R VSB 1/2 WCI  13
GALESBURG*     LGT SNOW  21  18  87 NW21G28   29.75R WCI   6
MACOMB*        LGT SNOW  24  22  91 NW26G32   29.80R WCI   7
JACKSONVILLE*  MIX PCPN  32  28  84 NW15G23   29.76R WCI  22
PITTSFIELD*    DRIZZLE   30  28  90 W14G29    29.79R WCI  19
$$

ILZ028>032-037-038-041>044-048-051>054-059>061-081300-
CENTRAL ILLINOIS

CITY           SKY/WX    TMP DP  RH WIND       PRES   REMARKS
PONTIAC        CLOUDY    32  27  82 W18       29.68R WCI  20
BLOOMINGTON    FLURRIES  31  29  92 NW15      29.69R WCI  20
DECATUR        CLOUDY    35  29  78 W12       29.69F WCI  27
PEORIA         CLOUDY    28  17  63 NW16G26   29.73R WCI  16
6HR MIN TEMP:  28; 6HR MAX TEMP:  34; 6HR PCP: TRACE;

LACON*         CLOUDY    29  22  75 NW14G22   29.70R WCI  18
LINCOLN*       CLOUDY    32  30  90 NW9G16    29.71R WCI  25
SPRINGFIELD    CLOUDY    32  30  92 NW14      29.73R WCI  22
6HR MIN TEMP:  32; 6HR MAX TEMP:  36; 6HR PCP:  0.03;

TAYLORVILLE    CLOUDY    32  30  93 W16G22    29.72S WCI  21
$$

ILZ033-039-045-046-055>057-062-063-081300-
EAST-CENTRAL ILLINOIS

CITY           SKY/WX    TMP DP  RH WIND       PRES   REMARKS
CHAMPAIGN      LGT RAIN  32  30  92 W8        29.68F WCI  25
RANTOUL*       CLOUDY    34  32  91 W8        29.67S WCI  27
MATTOON        CLOUDY    33  30  88 W6        29.69F WCI  28
PARIS*         CLOUDY    32  31  96 W7        29.71S WCI  26
$$

ILZ079-100>102-081300-
SOUTHWEST ILLINOIS

CITY           SKY/WX    TMP DP  RH WIND       PRES   REMARKS
ALTON          CLOUDY    34  23  64 W14G22    29.77S WCI  24
BELLEVILLE     MOCLDY    36  22  58 W17       29.76F WCI  25
CAHOKIA*       PTCLDY    35  16  45 W13G24    29.79S WCI  26
SPARTA*        LGT SNOW  34  31  88 W12       29.80S WCI  25
$$

ILZ064>066-069>071-074>076-080>082-084>086-088>090-092>094-081300-
SOUTH-CENTRAL ILLINOIS

CITY           SKY/WX    TMP DP  RH WIND       PRES   REMARKS
CARBONDALE     CLOUDY    37  28  70 W12G23    29.80S WCI  29
6HR MIN TEMP:  36; 6HR MAX TEMP:  41; 6HR PCP: TRACE;

CAIRO*         CLOUDY    36  31  79 W7        29.83R WCI  31
EFFINGHAM*     LGT SNOW  33  33 100 SW6       29.74F WCI  28
MARION         CLOUDY    37  30  75 W8        29.79S WCI  31
MT. VERNON     CLOUDY    36  27  69 SW6       29.76F WCI  31
CENTRALIA*     CLOUDY    36  32  86 W7        29.75S WCI  30
SALEM*         CLOUDY    36  32  85 W7        29.75S WCI  30
METROPOLIS*    PTCLDY    37  29  73 W8        29.82R WCI  30
$$

ILZ067-068-072-073-078-083-087-091-081300-
SOUTHEAST ILLINOIS

CITY           SKY/WX    TMP DP  RH WIND       PRES   REMARKS
LAWRENCEVILLE  CLOUDY    36  30  79 W10       29.73F WCI  28
FLORA*         CLOUDY    37  32  83 W9G16     29.75S WCI  30
FAIRFIELD*     CLOUDY    35  31  83 CALM      29.75F
HARRISBURG*    PTCLDY    33  30  88 W7        29.78S WCI  27
ROBINSON*      CLOUDY    33  32  94 W8        29.74S WCI  27
CARMI*         PTCLDY    34  32  94 W8        29.76S WCI  27
$$

ABBREVIATIONS USED IN REMARKS
   TC - TEMPERATURE IN CELSIUS
  WCI - WIND CHILL INDEX
   HX - HEAT INDEX
  VSB - VISIBILITY
$$





USA.gov is the U.S. government's official web portal to all federal, state and local government web resources and services.